Location: Davayat
(45.9471°N, 3.1105°E)
Time: 18:09:46
(UTC+00:00)

SAR-Lupe-4 - Pass Details

Date: 01 December 2020
Orbit: 481 x 484 km, 98.2° (Epoch: 09 January)

Event Time Altitude Azimuth Distance (km) Brightness Sun altitude
Exits shadow 17:29:13 27° 75° (ENE) 975 4.5 -14.3°
Maximum altitude 17:29:56 29° 97° (E) 921 4.4 -14.4°
Drops below altitude 10° 17:33:05 10° 159° (SSE) 1,663 6.2 -15.0°
Sets 17:35:20 0° 171° (S) 2,538 7.3 -15.3°
